Weather History for TJSJ - January, 2013

Change the Weather History Date:

Tuesday, January 8, 2013

  Actual Average Record
Temperature  
Mean Temperature 80 °F 78 °F  
Max Temperature 84 °F 83 °F 89 °F (2011)
Min Temperature 75 °F 72 °F 63 °F (1957)
Degree Days  
Heating Degree Days 0 0  
Month to date heating degree days 0 0  
Since 1 July heating degree days 0 0  
Cooling Degree Days 15 13  
Month to date cooling degree days 115 104  
Year to date cooling degree days 115 104  
Growing Degree Days 30 (Base 50)    
Moisture  
Dew Point 69 °F    
Average Humidity 72    
Maximum Humidity 82    
Minimum Humidity 61    
Precipitation  
Precipitation 0.03 in 0.14 in 1.25 in (1951)
Month to date precipitation 0.37 1.15  
Year to date precipitation 0.37 1.15  
Sea Level Pressure  
Sea Level Pressure 30.11 in    
Wind  
Wind Speed 15 mph (East)    
Max Wind Speed 30 mph    
Max Gust Speed 38 mph    
Visibility 10 miles    
Events Rain    
T = Trace of Precipitation, MM = Missing Value Source: NWS Daily Summary

Daily Weather History Graph

Daily Weather History Graph

Search for Another Location

Airport or City:

Trip Planner

Search our weather history database for the weather conditions in past years. The results will help you decide how hot, cold, wet, or windy it might be!

Date:

Astronomy

Jan. 08, 2013 Rise Set
Actual Time 6:58 AM AST 6:03 PM AST
Civil Twilight 6:34 AM AST 6:27 PM AST
Nautical Twilight 6:07 AM AST 6:54 PM AST
Astronomical Twilight 5:40 AM AST 7:20 PM AST
Moon 3:29 AM AST (1/8) 3:00 PM AST (1/8)
Length of Visible Light 11h 52m
Length of Day
11h 05m
Waning Crescent, 14% of the Moon is Illuminated
Jan 8
Waning Crescent
Jan 11
New
Jan 18
First Quarter
Jan 27
Full
Feb 3
Last Quarter

Hourly Weather History & Observations

Time (AST) Temp. Heat Index Dew Point Humidity Pressure Visibility Wind Dir Wind Speed Gust Speed Precip Events Conditions
12:56 AM 75.9 °F - 68.0 °F 76% 30.10 in 10.0 mi ESE 6.9 mph - N/A   Partly Cloudy
1:56 AM 75.0 °F - 68.0 °F 79% 30.08 in 10.0 mi ESE 4.6 mph - N/A   Scattered Clouds
2:56 AM 75.0 °F - 68.0 °F 79% 30.06 in 10.0 mi Calm Calm - N/A   Scattered Clouds
3:56 AM 75.0 °F - 68.0 °F 79% 30.06 in 10.0 mi SE 3.5 mph - N/A   Scattered Clouds
4:56 AM 75.0 °F - 69.1 °F 82% 30.06 in 10.0 mi SE 4.6 mph - N/A   Scattered Clouds
5:56 AM 77.0 °F - 69.1 °F 76% 30.07 in 10.0 mi East 13.8 mph - N/A   Scattered Clouds
6:56 AM 77.0 °F - 70.0 °F 79% 30.10 in 10.0 mi East 12.7 mph - N/A   Mostly Cloudy
7:56 AM 77.0 °F - 70.0 °F 79% 30.12 in 10.0 mi East 12.7 mph - 0.01 in   Mostly Cloudy
8:56 AM 80.1 °F 83.6 °F 71.1 °F 74% 30.14 in 10.0 mi ENE 19.6 mph 25.3 mph N/A   Mostly Cloudy
9:56 AM 75.9 °F - 68.0 °F 76% 30.17 in 10.0 mi ESE 15.0 mph 23.0 mph N/A   Mostly Cloudy
10:56 AM 82.9 °F 87.5 °F 71.1 °F 67% 30.15 in 10.0 mi ENE 18.4 mph 29.9 mph N/A   Mostly Cloudy
11:56 AM 84.0 °F 88.4 °F 70.0 °F 63% 30.14 in 10.0 mi East 24.2 mph 34.5 mph N/A   Scattered Clouds
12:56 PM 82.9 °F 85.8 °F 68.0 °F 60% 30.11 in 10.0 mi ENE 25.3 mph 32.2 mph N/A   Mostly Cloudy
1:56 PM 81.0 °F 84.1 °F 69.1 °F 67% 30.10 in 10.0 mi East 20.7 mph 28.8 mph 0.00 in   Mostly Cloudy
2:56 PM 82.0 °F 85.9 °F 70.0 °F 67% 30.09 in 10.0 mi East 16.1 mph 28.8 mph N/A   Scattered Clouds
3:56 PM 80.1 °F 83.6 °F 71.1 °F 74% 30.09 in 10.0 mi ENE 20.7 mph 28.8 mph N/A   Scattered Clouds
4:56 PM 81.0 °F 84.4 °F 70.0 °F 69% 30.09 in 10.0 mi East 23.0 mph 29.9 mph N/A   Scattered Clouds
5:56 PM 79.0 °F - 70.0 °F 74% 30.10 in 10.0 mi East 16.1 mph - N/A   Mostly Cloudy
6:56 PM 79.0 °F - 70.0 °F 74% 30.12 in 10.0 mi East 13.8 mph - N/A   Mostly Cloudy
7:56 PM 79.0 °F - 69.1 °F 72% 30.12 in 10.0 mi East 16.1 mph 25.3 mph 0.00 in   Mostly Cloudy
8:56 PM 79.0 °F - 70.0 °F 74% 30.14 in 10.0 mi East 16.1 mph - N/A   Scattered Clouds
9:56 PM 77.0 °F - 72.0 °F 84% 30.15 in 10.0 mi East 15.0 mph 24.2 mph 0.02 in Rain Light Rain
10:56 PM 77.0 °F - 69.1 °F 76% 30.15 in 10.0 mi East 16.1 mph - 0.00 in   Mostly Cloudy
11:56 PM 78.1 °F - 69.1 °F 74% 30.14 in 10.0 mi East 13.8 mph 20.7 mph N/A   Scattered Clouds